TimeCST,TemperatureF,Dew PointF,Humidity,Sea Level PressureIn,VisibilityMPH,Wind Direction,Wind SpeedMPH,Gust SpeedMPH,PrecipitationIn,Events,Conditions,WindDirDegrees,DateUTC
12:53 AM,30.9,25.0,79,30.35,10.0,Calm,Calm,-,N/A,,Clear,0,2012-12-14 06:53:00
1:53 AM,28.9,25.0,85,30.34,10.0,Calm,Calm,-,N/A,,Clear,0,2012-12-14 07:53:00
2:53 AM,28.9,25.0,85,30.34,10.0,Calm,Calm,-,N/A,,Clear,0,2012-12-14 08:53:00
3:53 AM,30.0,24.1,79,30.32,10.0,SE,3.5,-,N/A,,Clear,130,2012-12-14 09:53:00
4:53 AM,30.0,24.1,79,30.32,10.0,Calm,Calm,-,N/A,,Clear,0,2012-12-14 10:53:00
5:53 AM,28.0,25.0,88,30.34,10.0,ENE,3.5,-,N/A,,Clear,70,2012-12-14 11:53:00
6:53 AM,28.0,24.1,85,30.36,8.0,Calm,Calm,-,N/A,,Clear,0,2012-12-14 12:53:00
7:53 AM,33.1,27.0,78,30.36,10.0,Calm,Calm,-,N/A,,Clear,0,2012-12-14 13:53:00
8:53 AM,42.1,35.1,76,30.35,10.0,ESE,4.6,-,N/A,,Clear,120,2012-12-14 14:53:00
9:53 AM,50.0,39.0,66,30.35,10.0,SE,5.8,-,N/A,,Clear,140,2012-12-14 15:53:00
10:53 AM,55.0,39.9,57,30.34,10.0,South,6.9,-,N/A,,Clear,170,2012-12-14 16:53:00
11:53 AM,57.9,39.9,51,30.30,10.0,SSE,5.8,-,N/A,,Clear,150,2012-12-14 17:53:00
12:53 PM,59.0,39.0,48,30.27,10.0,Calm,Calm,-,N/A,,Clear,0,2012-12-14 18:53:00
1:53 PM,59.0,39.0,48,30.23,10.0,East,3.5,-,N/A,,Clear,80,2012-12-14 19:53:00
2:53 PM,59.0,37.9,46,30.22,10.0,Calm,Calm,-,N/A,,Clear,0,2012-12-14 20:53:00
3:53 PM,55.9,39.0,53,30.23,10.0,SSE,3.5,-,N/A,,Clear,150,2012-12-14 21:53:00
4:53 PM,53.1,39.9,61,30.20,10.0,East,5.8,-,N/A,,Clear,90,2012-12-14 22:53:00
5:53 PM,52.0,39.9,63,30.19,10.0,East,6.9,-,N/A,,Clear,100,2012-12-14 23:53:00
6:53 PM,51.1,39.0,63,30.19,10.0,ESE,5.8,-,N/A,,Clear,120,2012-12-15 00:53:00
7:53 PM,51.1,39.0,63,30.17,10.0,East,4.6,-,N/A,,Clear,90,2012-12-15 01:53:00
8:53 PM,48.9,39.0,69,30.16,10.0,Calm,Calm,-,N/A,,Clear,0,2012-12-15 02:53:00
9:53 PM,48.0,39.9,74,30.17,10.0,Calm,Calm,-,N/A,,Clear,0,2012-12-15 03:53:00
10:53 PM,48.0,39.9,74,30.18,10.0,West,3.5,-,N/A,,Clear,260,2012-12-15 04:53:00
11:53 PM,46.9,41.0,80,30.17,10.0,Calm,Calm,-,N/A,,Clear,0,2012-12-15 05:53:00